EW9200 Weather Reports


Display with metric or nautical units.
time (UTC)temp
F
wind
direction
speed
MPH
gust
MPH
rain 1hr
in
rain 24hr
in
rain mn
in
humidity
%
barometer
mb
20260510180053 64 271 3.0 8.0 0.00 0.00 0.00 38 1018.9
20260510175531 63 306 4.0 9.0 0.00 0.00 0.00 39 1018.9
20260510175031 64 3 4.0 9.0 0.00 0.00 0.00 37 1018.8
20260510174546 64 302 2.0 7.0 0.00 0.00 0.00 39 1018.9
20260510174031 65 150 2.0 7.0 0.00 0.00 0.00 36 1019.0
20260510173530 64 15 1.0 10.0 0.00 0.00 0.00 42 1019.2
20260510173044 64 212 2.0 10.0 0.00 0.00 0.00 39 1019.2
20260510172531 63 294 3.0 9.0 0.00 0.00 0.00 40 1019.3
20260510172030 63 89 3.0 9.0 0.00 0.00 0.00 39 1019.4
20260510171549 64 209 3.0 9.0 0.00 0.00 0.00 40 1019.5
20260510171031 63 312 1.0 7.0 0.00 0.00 0.00 36 1019.6
20260510170531 63 311 3.0 13.0 0.00 0.00 0.00 40 1019.6
20260510170109 63 344 3.0 13.0 0.00 0.00 0.00 43 1019.6
20260510165531 63 352 4.0 13.0 0.00 0.00 0.00 41 1019.6
20260510165034 63 316 4.0 8.0 0.00 0.00 0.00 37 1019.5
20260510164601 63 72 1.0 6.0 0.00 0.00 0.00 37 1019.4
20260510164032 63 281 3.0 8.0 0.00 0.00 0.00 38 1019.5
20260510163531 63 297 1.0 8.0 0.00 0.00 0.00 39 1019.4
20260510163044 62 313 3.0 8.0 0.00 0.00 0.00 37 1019.2
20260510162531 63 329 1.0 8.0 0.00 0.00 0.00 37 1019.3
20260510162029 62 311 2.0 8.0 0.00 0.00 0.00 39 1019.1
20260510161542 62 341 3.0 8.0 0.00 0.00 0.00 36 1019.0
20260510161028 63 335 1.0 5.0 0.00 0.00 0.00 43 1018.9
20260510160528 62 1 1.0 6.0 0.00 0.00 0.00 40 1018.8
20260510160043 62 249 2.0 6.0 0.00 0.00 0.00 40 1018.8
20260510155526 62 281 2.0 5.0 0.00 0.00 0.00 40 1018.6
20260510155026 62 174 2.0 5.0 0.00 0.00 0.00 41 1018.7
20260510154544 62 99 2.0 5.0 0.00 0.00 0.00 40 1018.6
20260510154029 62 316 1.0 5.0 0.00 0.00 0.00 44 1018.7
20260510153531 61 315 1.0 5.0 0.00 0.00 0.00 42 1018.6
20260510153050 61 14 1.0 4.0 0.00 0.00 0.00 39 1018.6
20260510152529 61 118 2.0 4.0 0.00 0.00 0.00 40 1018.7
20260510152028 62 311 2.0 4.0 0.00 0.00 0.00 40 1018.6
20260510151538 62 28 1.0 4.0 0.00 0.00 0.00 42 1018.7
20260510151033 62 0 1.0 4.0 0.00 0.00 0.00 43 1018.8
20260510150529 62 312 1.0 4.0 0.00 0.00 0.00 42 1018.8
20260510150047 62 345 0.0 2.0 0.00 0.00 0.00 44 1018.8
20260510145528 61 143 1.0 2.0 0.00 0.00 0.00 47 1018.7
20260510145028 61 212 1.0 2.0 0.00 0.00 0.00 45 1018.8
20260510144548 61 138 0.0 4.0 0.00 0.00 0.00 44 1018.8
20260510144030 60 92 1.0 4.0 0.00 0.00 0.00 40 1018.9
20260510143529 61 234 1.0 3.0 0.00 0.00 0.00 43 1018.9
20260510143044 60 115 0.0 3.0 0.00 0.00 0.00 46 1018.8
20260510142529 60 122 0.0 3.0 0.00 0.00 0.00 43 1018.8
20260510142029 59 198 1.0 3.0 0.00 0.00 0.00 43 1018.9
20260510141541 59 146 1.0 3.0 0.00 0.00 0.00 45 1018.8
20260510141028 59 96 0.0 3.0 0.00 0.00 0.00 46 1018.8
20260510140529 58 134 1.0 5.0 0.00 0.00 0.00 46 1018.7
20260510140038 58 193 0.0 5.0 0.00 0.00 0.00 48 1018.5
20260510135529 58 76 1.0 4.0 0.00 0.00 0.00 46 1018.6
20260510135029 58 200 2.0 5.0 0.00 0.00 0.00 46 1018.6
20260510134542 58 153 1.0 5.0 0.00 0.00 0.00 47 1018.5
20260510134030 58 131 1.0 4.0 0.00 0.00 0.00 48 1018.4
20260510133528 58 121 2.0 4.0 0.00 0.00 0.00 46 1018.3
20260510133041 57 133 1.0 4.0 0.00 0.00 0.00 48 1018.3
20260510132528 57 186 1.0 2.0 0.00 0.00 0.00 49 1018.1
20260510132029 57 26 0.0 3.0 0.00 0.00 0.00 52 1018.2
20260510131541 56 0 1.0 6.0 0.00 0.00 0.00 51 1018.3
20260510131028 55 225 1.0 6.0 0.00 0.00 0.00 51 1018.1
20260510130551 56 113 1.0 5.0 0.00 0.00 0.00 51 1018.2
20260510130049 56 165 1.0 4.0 0.00 0.00 0.00 54 1018.1
20260510125529 56 112 0.0 3.0 0.00 0.00 0.00 61 1018.2
20260510125029 55 117 0.0 3.0 0.00 0.00 0.00 60 1018.0
20260510124557 54 0 0.0 3.0 0.00 0.00 0.00 60 1017.9
20260510124028 53 0 0.0 2.0 0.00 0.00 0.00 62 1017.9
20260510123529 53 96 0.0 2.0 0.00 0.00 0.00 62 1017.9
20260510123043 52 0 0.0 2.0 0.00 0.00 0.00 65 1017.8
20260510122528 51 286 0.0 1.0 0.00 0.00 0.00 66 1017.7
20260510122032 50 0 0.0 1.0 0.00 0.00 0.00 68 1017.7
20260510121542 49 0 0.0 2.0 0.00 0.00 0.00 69 1017.6
20260510121031 48 103 0.0 2.0 0.00 0.00 0.00 70 1017.5
20260510120529 46 108 0.0 2.0 0.00 0.00 0.00 73 1017.4
20260510120043 45 0 0.0 1.0 0.00 0.00 0.00 76 1017.2
20260510115528 44 327 0.0 1.0 0.00 0.00 0.00 78 1017.0
20260510115025 43 327 0.0 1.0 0.00 0.00 0.00 80 1017.2
20260510114536 42 0 0.0 1.0 0.00 0.00 0.00 81 1017.0
20260510114027 41 0 0.0 0.0 0.00 0.00 0.00 83 1017.1
20260510113528 40 0 0.0 0.0 0.00 0.00 0.00 84 1017.0
20260510113043 39 0 0.0 0.0 0.00 0.00 0.00 85 1016.7
20260510112528 39 0 0.0 0.0 0.00 0.00 0.00 85 1016.8
20260510112029 38 0 0.0 0.0 0.00 0.00 0.00 84 1016.7
20260510111542 38 0 0.0 0.0 0.00 0.00 0.00 84 1016.6
20260510111028 39 0 0.0 0.0 0.00 0.00 0.00 83 1016.4
20260510110528 39 0 0.0 0.0 0.00 0.00 0.00 83 1016.3
20260510110046 39 0 0.0 0.0 0.00 0.00 0.00 83 1016.4
20260510105528 39 0 0.0 0.0 0.00 0.00 0.00 82 1016.3
20260510105029 39 0 0.0 0.0 0.00 0.00 0.00 80 1016.1
20260510104545 40 0 0.0 0.0 0.00 0.00 0.00 79 1016.1
20260510104030 40 0 0.0 0.0 0.00 0.00 0.00 78 1015.8
20260510103532 40 0 0.0 0.0 0.00 0.00 0.00 78 1015.7
20260510103041 41 0 0.0 0.0 0.00 0.00 0.00 77 1015.7
20260510102528 41 0 0.0 0.0 0.00 0.00 0.00 76 1015.6
20260510102027 42 0 0.0 0.0 0.00 0.00 0.00 75 1015.6
20260510101539 42 0 0.0 0.0 0.00 0.00 0.00 74 1015.6
20260510101028 42 0 0.0 0.0 0.00 0.00 0.00 73 1015.4
20260510100528 43 0 0.0 0.0 0.00 0.00 0.00 72 1015.5
20260510100108 43 0 0.0 0.0 0.00 0.00 0.00 71 1015.4
20260510095528 44 0 0.0 1.0 0.00 0.00 0.00 70 1015.4
20260510095030 44 0 0.0 1.0 0.00 0.00 0.00 69 1015.3
20260510094542 45 0 0.0 1.0 0.00 0.00 0.00 69 1015.3
20260510094028 45 327 0.0 1.0 0.00 0.00 0.00 68 1015.1
20260510093530 45 289 0.0 1.0 0.00 0.00 0.00 68 1015.1
20260510093042 45 0 0.0 1.0 0.00 0.00 0.00 68 1015.1
20260510092530 45 0 0.0 1.0 0.00 0.00 0.00 68 1015.1
20260510092029 46 0 0.0 4.0 0.00 0.00 0.00 67 1015.0
20260510091539 46 0 0.0 4.0 0.00 0.00 0.00 67 1015.0
20260510091028 46 0 0.0 2.0 0.00 0.00 0.00 68 1015.0
20260510090528 46 306 0.0 2.0 0.00 0.00 0.00 68 1014.9
20260510090037 46 0 0.0 2.0 0.00 0.00 0.00 69 1015.0
20260510085528 46 304 0.0 1.0 0.00 0.00 0.00 69 1015.1
20260510085031 46 324 0.0 4.0 0.00 0.00 0.00 68 1015.1
20260510084544 46 276 0.0 4.0 0.00 0.00 0.00 68 1015.0
20260510084028 46 276 0.0 3.0 0.00 0.00 0.00 69 1015.0
20260510083531 46 0 0.0 3.0 0.00 0.00 0.00 69 1015.0
20260510083053 46 311 0.0 2.0 0.00 0.00 0.00 70 1015.0
20260510082530 46 0 0.0 3.0 0.00 0.00 0.00 71 1014.8
20260510082028 46 319 0.0 3.0 0.00 0.00 0.00 72 1014.9
20260510081541 46 333 0.0 2.0 0.00 0.00 0.00 73 1014.9
20260510081030 45 314 0.0 2.0 0.00 0.00 0.00 77 1014.6
20260510080529 45 0 0.0 3.0 0.00 0.00 0.00 79 1014.5
20260510080040 44 0 0.0 3.0 0.00 0.00 0.00 85 1014.2
20260510075528 42 304 0.0 3.0 0.00 0.00 0.00 91 1014.1
20260510075028 41 332 0.0 3.0 0.00 0.00 0.00 93 1014.2
20260510074542 41 0 0.0 0.0 0.00 0.00 0.00 91 1014.0
20260510074029 41 0 0.0 0.0 0.00 0.00 0.00 91 1013.9
20260510073529 41 0 0.0 1.0 0.00 0.00 0.00 91 1013.9
20260510073044 41 0 0.0 1.0 0.00 0.00 0.00 91 1013.8
20260510072531 42 344 0.0 1.0 0.00 0.00 0.00 91 1013.8
20260510072031 42 0 0.0 1.0 0.00 0.00 0.00 91 1013.7
20260510071543 42 0 0.0 0.0 0.00 0.00 0.00 91 1013.4
20260510071030 42 0 0.0 0.0 0.00 0.00 0.00 92 1013.1
20260510070530 42 0 0.0 0.0 0.00 0.00 0.00 91 1013.0
20260510070048 42 0 0.0 0.0 0.00 0.00 0.00 91 1013.0
20260510065528 42 0 0.0 0.0 0.00 0.00 0.00 91 1013.0
20260510065033 42 0 0.0 0.0 0.00 0.00 0.00 90 1012.9
20260510064539 42 0 0.0 0.0 0.00 0.00 0.00 88 1013.0
20260510064028 42 0 0.0 0.0 0.00 0.00 0.00 88 1012.9
20260510063528 42 0 0.0 0.0 0.00 0.00 0.00 88 1012.7
20260510063036 43 0 0.0 0.0 0.00 0.00 0.00 88 1012.7
20260510062527 43 0 0.0 0.0 0.00 0.00 0.00 87 1012.7
20260510062027 43 0 0.0 0.0 0.00 0.00 0.00 86 1012.7
20260510061537 43 0 0.0 0.0 0.00 0.00 0.00 85 1012.8
20260510061028 44 0 0.0 0.0 0.00 0.00 0.00 85 1012.8
20260510060531 44 0 0.0 1.0 0.00 0.00 0.00 85 1012.8
20260510060043 44 0 0.0 1.0 0.00 0.00 0.00 85 1012.5
20260510055534 44 329 0.0 0.0 0.00 0.00 0.00 85 1012.7
20260510055030 44 0 0.0 0.0 0.00 0.00 0.00 84 1012.5
20260510054540 44 0 0.0 1.0 0.00 0.00 0.00 83 1012.5
20260510054031 45 0 0.0 1.0 0.00 0.00 0.00 83 1012.5
20260510053532 45 0 0.0 1.0 0.00 0.00 0.00 83 1012.4
20260510053042 45 0 0.0 1.0 0.00 0.00 0.00 83 1012.3
20260510052528 45 0 0.0 1.0 0.00 0.00 0.00 83 1012.2
20260510052030 45 0 0.0 1.0 0.00 0.00 0.00 82 1012.2
20260510051547 45 0 0.0 0.0 0.00 0.00 0.00 82 1012.1
20260510051028 46 0 0.0 0.0 0.00 0.00 0.00 81 1012.1
20260510050529 46 0 0.0 0.0 0.00 0.00 0.00 80 1012.2
20260510050045 46 0 0.0 0.0 0.00 0.00 0.00 79 1012.0
20260510045530 46 0 0.0 0.0 0.00 0.00 0.00 77 1011.9
20260510045030 47 0 0.0 0.0 0.00 0.00 0.00 75 1011.9
20260510044542 47 0 0.0 0.0 0.00 0.00 0.00 74 1011.8
20260510044029 48 0 0.0 0.0 0.00 0.00 0.00 73 1011.6
20260510043529 48 0 0.0 0.0 0.00 0.00 0.00 72 1011.6
20260510043040 49 0 0.0 0.0 0.00 0.00 0.00 70 1011.5
20260510042530 49 0 0.0 0.0 0.00 0.00 0.00 70 1011.4
20260510042030 49 0 0.0 0.0 0.00 0.00 0.00 69 1011.2
20260510041536 50 0 0.0 0.0 0.00 0.00 0.00 67 1011.2
20260510041028 50 0 0.0 0.0 0.00 0.00 0.00 66 1011.3
20260510040528 51 0 0.0 0.0 0.00 0.00 0.00 65 1011.1
20260510040040 51 0 0.0 0.0 0.00 0.00 0.00 65 1011.0
20260510035529 52 0 0.0 1.0 0.00 0.00 0.00 64 1011.0
20260510035028 52 0 0.0 1.0 0.00 0.00 0.00 63 1010.9
20260510034547 53 0 0.0 0.0 0.00 0.00 0.00 62 1010.8
20260510034031 53 0 0.0 1.0 0.00 0.00 0.00 62 1010.7
20260510033529 54 0 0.0 1.0 0.00 0.00 0.00 61 1010.7
20260510033048 54 0 0.0 1.0 0.00 0.00 0.00 59 1010.5
20260510032533 55 0 0.0 2.0 0.00 0.00 0.00 59 1010.4
20260510032029 55 0 0.0 2.0 0.00 0.00 0.00 58 1010.3
20260510031540 55 117 0.0 2.0 0.00 0.00 0.00 58 1010.3
20260510031032 56 0 0.0 1.0 0.00 0.00 0.00 58 1010.2
20260510030530 56 0 0.0 1.0 0.00 0.00 0.00 57 1010.1
20260510030038 56 0 0.0 4.0 0.00 0.00 0.00 57 1010.2
20260510025531 57 0 0.0 4.0 0.00 0.00 0.00 56 1010.0
20260510025028 58 354 1.0 4.0 0.00 0.00 0.00 55 1010.1
20260510024545 58 142 0.0 3.0 0.00 0.00 0.00 54 1010.0
20260510024027 59 105 1.0 7.0 0.00 0.00 0.00 52 1010.0
20260510023529 60 328 1.0 7.0 0.00 0.00 0.00 51 1009.9
20260510023042 60 155 0.0 1.0 0.00 0.00 0.00 50 1009.9
20260510022533 61 3 0.0 1.0 0.00 0.00 0.00 48 1009.6
20260510022030 61 0 0.0 1.0 0.00 0.00 0.00 48 1009.5
20260510021543 62 0 0.0 1.0 0.00 0.00 0.00 47 1009.3
20260510021029 62 0 0.0 2.0 0.00 0.00 0.00 46 1009.2
20260510020529 62 337 0.0 3.0 0.00 0.00 0.00 46 1009.1
20260510020040 63 299 0.0 3.0 0.00 0.00 0.00 46 1008.8
20260510015529 63 6 0.0 3.0 0.00 0.00 0.00 46 1008.6
20260510015029 63 360 1.0 2.0 0.00 0.00 0.00 47 1008.6
20260510014540 63 0 0.0 3.0 0.00 0.00 0.00 46 1008.3
20260510014030 64 321 0.0 6.0 0.00 0.00 0.00 46 1008.3
20260510013529 64 8 0.0 6.0 0.00 0.00 0.00 46 1008.2
20260510013040 64 349 1.0 5.0 0.00 0.00 0.00 46 1008.2
20260510012529 64 0 1.0 3.0 0.00 0.00 0.00 46 1008.0
20260510012028 64 330 0.0 2.0 0.00 0.00 0.00 45 1007.7
20260510011542 65 359 0.0 3.0 0.00 0.00 0.00 45 1007.6
20260510011029 65 330 0.0 3.0 0.00 0.00 0.00 44 1007.2
20260510010529 66 310 0.0 4.0 0.00 0.00 0.00 43 1007.2
20260510010042 66 330 1.0 5.0 0.00 0.00 0.00 42 1007.0
20260510005529 67 333 1.0 5.0 0.00 0.00 0.00 42 1007.1
20260510005029 67 291 2.0 5.0 0.00 0.00 0.00 42 1006.9
20260510004540 68 8 2.0 4.0 0.00 0.00 0.00 43 1006.7
20260510004029 68 325 1.0 7.0 0.00 0.00 0.00 46 1006.7
20260510003529 68 52 1.0 7.0 0.00 0.00 0.00 46 1006.6
20260510003055 68 335 2.0 7.0 0.00 0.00 0.00 46 1006.6
20260510002529 68 44 2.0 6.0 0.00 0.00 0.00 46 1006.4
20260510002030 69 91 2.0 9.0 0.00 0.00 0.00 47 1006.3
20260510001536 69 210 3.0 9.0 0.00 0.00 0.00 46 1006.2
20260510001033 69 89 1.0 9.0 0.00 0.00 0.00 47 1006.0
20260510000530 69 303 2.0 9.0 0.00 0.00 0.00 47 1006.0
20260510000044 69 282 2.0 8.0 0.00 0.00 0.00 47 1006.0
20260509235530 69 293 2.0 11.0 0.00 0.00 0.00 47 1006.0
20260509235029 69 49 2.0 11.0 0.00 0.00 0.00 47 1005.8
20260509234544 69 13 3.0 11.0 0.00 0.00 0.00 46 1005.8
20260509234030 69 269 3.0 8.0 0.00 0.00 0.00 47 1005.8
20260509233529 69 213 3.0 11.0 0.00 0.00 0.00 47 1005.8
20260509233043 70 136 2.0 11.0 0.00 0.00 0.00 47 1005.9
20260509232531 70 208 3.0 8.0 0.00 0.00 0.00 46 1005.8
20260509232028 71 125 2.0 8.0 0.00 0.00 0.00 46 1005.7
20260509231543 71 334 3.0 9.0 0.00 0.00 0.00 45 1005.7
20260509231031 71 260 2.0 11.0 0.00 0.00 0.00 46 1005.6
20260509230529 71 297 4.0 11.0 0.00 0.00 0.00 45 1005.4
20260509230047 71 265 5.0 11.0 0.00 0.00 0.00 44 1005.4
20260509225530 71 231 3.0 12.0 0.00 0.00 0.00 45 1005.5
20260509225029 71 295 3.0 12.0 0.00 0.00 0.00 44 1005.5
20260509224553 71 30 3.0 11.0 0.00 0.00 0.00 45 1005.4
20260509224030 71 34 4.0 11.0 0.00 0.00 0.00 43 1005.3
20260509223530 71 18 3.0 10.0 0.00 0.00 0.00 43 1005.3
20260509223047 71 184 3.0 12.0 0.00 0.00 0.00 45 1005.2
20260509222529 71 23 3.0 12.0 0.00 0.00 0.00 44 1005.2
20260509222035 71 212 3.0 12.0 0.00 0.00 0.00 44 1005.0
20260509221541 71 146 3.0 10.0 0.00 0.00 0.00 43 1005.1
20260509221029 71 327 3.0 10.0 0.00 0.00 0.00 43 1004.8
20260509220529 71 110 4.0 14.0 0.00 0.00 0.00 42 1005.1
20260509220041 71 293 3.0 14.0 0.00 0.00 0.00 42 1005.0
20260509215530 71 345 4.0 10.0 0.00 0.00 0.00 41 1005.0
20260509215030 71 289 3.0 11.0 0.00 0.00 0.00 41 1004.9
20260509214544 71 272 3.0 11.0 0.00 0.00 0.00 40 1004.8
20260509214031 71 204 4.0 11.0 0.00 0.00 0.00 40 1004.8
20260509213530 72 330 3.0 15.0 0.00 0.00 0.00 41 1004.8
20260509213043 72 32 6.0 15.0 0.00 0.00 0.00 40 1004.6
20260509212528 72 332 5.0 14.0 0.00 0.00 0.00 40 1004.8
20260509212033 72 202 3.0 21.0 0.00 0.00 0.00 40 1004.6
20260509211537 72 304 4.0 21.0 0.00 0.00 0.00 40 1004.4
20260509211030 72 352 4.0 13.0 0.00 0.00 0.00 39 1004.5
20260509210529 72 276 4.0 13.0 0.00 0.00 0.00 40 1004.4
20260509210037 72 126 5.0 17.0 0.00 0.00 0.00 40 1004.3
20260509205527 72 102 5.0 17.0 0.00 0.00 0.00 39 1004.4
20260509205029 72 215 5.0 14.0 0.00 0.00 0.00 38 1004.2
20260509204542 72 347 3.0 13.0 0.00 0.00 0.00 38 1004.4
20260509204030 72 306 2.0 13.0 0.00 0.00 0.00 38 1004.2
20260509203529 72 311 4.0 11.0 0.00 0.00 0.00 35 1004.1
20260509203052 72 44 3.0 9.0 0.00 0.00 0.00 37 1004.1
20260509202529 72 323 2.0 9.0 0.00 0.00 0.00 38 1004.3
20260509202030 72 11 3.0 13.0 0.00 0.00 0.00 37 1004.1
20260509201543 72 29 4.0 13.0 0.00 0.00 0.00 37 1004.3
20260509201030 72 70 4.0 10.0 0.00 0.00 0.00 37 1004.4
20260509200529 72 320 3.0 7.0 0.00 0.00 0.00 37 1004.3
20260509200041 72 325 2.0 10.0 0.00 0.00 0.00 37 1004.3
20260509195529 72 100 3.0 10.0 0.00 0.00 0.00 36 1004.3
20260509195031 72 330 3.0 11.0 0.00 0.00 0.00 36 1004.3
20260509194542 72 336 4.0 11.0 0.00 0.00 0.00 35 1004.4
20260509194030 73 1 4.0 17.0 0.00 0.00 0.00 35 1004.3
20260509193530 73 348 8.0 17.0 0.00 0.00 0.00 34 1004.2
20260509193045 74 322 2.0 10.0 0.00 0.00 0.00 36 1004.3
20260509192529 75 11 4.0 12.0 0.00 0.00 0.00 34 1004.2
20260509192029 75 30 4.0 15.0 0.00 0.00 0.00 34 1004.1
20260509191544 76 300 2.0 15.0 0.00 0.00 0.00 36 1004.4
20260509191032 75 352 5.0 13.0 0.00 0.00 0.00 35 1004.3
20260509190531 75 214 4.0 16.0 0.00 0.00 0.00 37 1004.2
20260509190041 74 9 6.0 16.0 0.00 0.00 0.00 35 1004.2
20260509185529 75 275 3.0 14.0 0.00 0.00 0.00 35 1004.1
20260509185029 75 335 4.0 14.0 0.00 0.00 0.00 35 1004.2
20260509184545 75 344 2.0 11.0 0.00 0.00 0.00 39 1004.3
20260509184030 74 297 3.0 11.0 0.00 0.00 0.00 37 1004.1
20260509183529 74 36 3.0 14.0 0.00 0.00 0.00 38 1004.2
20260509183038 74 349 3.0 14.0 0.00 0.00 0.00 38 1004.2
20260509182530 74 65 5.0 13.0 0.00 0.00 0.00 34 1004.2
20260509182028 75 37 3.0 10.0 0.00 0.00 0.00 39 1004.1
20260509181605 74 335 3.0 12.0 0.00 0.00 0.00 37 1004.3
20260509181029 74 294 5.0 12.0 0.00 0.00 0.00 37 1004.1
20260509180529 74 276 5.0 13.0 0.00 0.00 0.00 39 1003.9